User: anonymous
Location: Caltech
(34.1382°N, 118.1253°W)
Time: 07:52:24
(UTC-07:00)
Language:

Iridium 91 - Orbit

View from above orbital plane
View from above orbital plane
View from above satellite
View from above satellite

Ground track
Ground track

The orbit data is extracted from the following two-line orbital elements,

1 27372U 02005A   14238.93557266  .00000205  00000-0  66101-4 0  4562
2 27372 086.4022 356.2325 0002063 075.0469 063.4905 14.34216049664673
Epoch (UTC): 26 August 2014 22:27:13
Eccentricity: 0.0002063
inclination: 86.4022°
perigee height: 776 km
apogee height: 779 km
right ascension of ascending node: 356.2325°
argument of perigee: 75.0469°
revolutions per day: 14.34216049
mean anomaly at epoch: 63.4905°
orbit number at epoch: 66467

The dashed part of the orbit path shows where the satellite is in the earth's shadow,  

DLR